Weather History for Greenville, AL

Change the Weather History Date:

Friday, February 15, 2013

  Actual Average Record
Temperature  
Mean Temperature 48 °F -  
Max Temperature 64 °F 65 °F 84 °F (1989)
Min Temperature 33 °F 42 °F 17 °F (1943)
Degree Days  
Heating Degree Days 16    
Moisture  
Dew Point 34 °F    
Average Humidity 60    
Maximum Humidity 93    
Minimum Humidity 28    
Precipitation  
Precipitation 0.00 in - - ()
Sea Level Pressure  
Sea Level Pressure 30.08 in    
Wind  
Wind Speed 2 mph (NW)    
Max Wind Speed 9 mph    
Max Gust Speed -    
Visibility 10 miles    
Events      
Averages and records for this station are not official NWS values.
T = Trace of Precipitation, MM = Missing Value Source: NWS Daily Summary

Daily Weather History Graph

Daily Weather History Graph

Search for Another Location

Airport:

Trip Planner

Search our weather history database for the weather conditions in past years. The results will help you decide how hot, cold, wet, or windy it might be!

Date:

Astronomy

Feb. 15, 2013 Rise Set
Actual Time 6:28 AM CST 5:33 PM CST
Civil Twilight 6:03 AM CST 5:58 PM CST
Nautical Twilight 5:34 AM CST 6:26 PM CST
Astronomical Twilight 5:06 AM CST 6:55 PM CST
Moon 9:27 AM CST (2/15) 11:08 PM CST (2/15)
Length of Visible Light 11h 54m
Length of Day
11h 05m
Waxing Crescent, 30% of the Moon is Illuminated
Feb 15
Waxing Crescent
Feb 17
First Quarter
Feb 25
Full
Mar 4
Last Quarter
Mar 11
New

Hourly Weather History & Observations

Time (CST) Temp. Dew Point Humidity Pressure Visibility Wind Dir Wind Speed Gust Speed Precip Events Conditions
12:56 AM 36.0 °F 34.0 °F 93% 30.09 in 10.0 mi Calm Calm - N/A   Clear
1:56 AM 35.1 °F 32.0 °F 89% 30.08 in 10.0 mi Calm Calm - N/A   Clear
2:56 AM 34.0 °F 30.9 °F 89% 30.08 in 10.0 mi Calm Calm - N/A   Clear
3:56 AM 33.1 °F 30.9 °F 92% 30.09 in 10.0 mi Calm Calm - N/A   Clear
4:56 AM 33.1 °F 30.0 °F 89% 30.10 in 10.0 mi Calm Calm - N/A   Clear
5:56 AM 34.0 °F 30.9 °F 89% 30.12 in 10.0 mi Calm Calm - N/A   Clear
6:56 AM 34.0 °F 30.9 °F 89% 30.13 in 10.0 mi Calm Calm - N/A   Clear
7:56 AM 43.0 °F 37.9 °F 82% 30.15 in 10.0 mi Calm Calm - N/A   Clear
8:56 AM 52.0 °F 39.9 °F 63% 30.15 in 10.0 mi North 5.8 mph - N/A   Clear
9:56 AM 57.0 °F 37.0 °F 47% 30.15 in 10.0 mi North 9.2 mph - N/A   Clear
10:56 AM 59.0 °F 36.0 °F 42% 30.13 in 10.0 mi Variable 3.5 mph - N/A   Clear
11:56 AM 62.1 °F 35.1 °F 37% 30.10 in 10.0 mi Calm Calm - N/A   Clear
12:56 PM 62.1 °F 32.0 °F 32% 30.05 in 10.0 mi Calm Calm - N/A   Clear
1:56 PM 64.9 °F 30.9 °F 28% 30.04 in 10.0 mi WNW 9.2 mph - N/A   Clear
2:56 PM 64.0 °F 32.0 °F 30% 30.03 in 10.0 mi Calm Calm - N/A   Clear
3:56 PM 64.0 °F 33.1 °F 31% 30.03 in 10.0 mi NW 5.8 mph - N/A   Clear
4:56 PM 62.1 °F 34.0 °F 35% 30.03 in 10.0 mi NNW 6.9 mph - N/A   Clear
5:56 PM 57.9 °F 35.1 °F 42% 30.04 in 10.0 mi NNW 5.8 mph - N/A   Clear
6:56 PM 55.9 °F 34.0 °F 44% 30.04 in 10.0 mi NW 5.8 mph - N/A   Clear
7:56 PM 48.9 °F 39.0 °F 69% 30.05 in 10.0 mi Calm Calm - N/A   Clear
8:56 PM 53.1 °F 36.0 °F 52% 30.06 in 10.0 mi NW 4.6 mph - N/A   Clear
9:56 PM 52.0 °F 36.0 °F 54% 30.06 in 10.0 mi NW 9.2 mph - N/A   Clear
10:56 PM 48.9 °F 37.0 °F 64% 30.06 in 10.0 mi NNW 8.1 mph - N/A   Clear
11:56 PM 48.0 °F 37.0 °F 66% 30.06 in 10.0 mi NW 8.1 mph - N/A   Clear